• In Hungary
  • List of Countries
  • For 7 days
  • Water Temperature
  • Satellite Maps
  • Weather Map
  • News
  • Weather Widgets
  • user-avatar
    Login

    Hourly Weather Santa Lucía

    Today, 11 December, Monday

    Time Temperature Precipitation Wind Pressure Humidity
    00:00 +13°C° 0 mm 2 mps 700 mmHg 89%
    01:00 +13°C° 0.1 mm 2 mps 700 mmHg 90%
    02:00 +13°C° 0.1 mm 2 mps 700 mmHg 91%
    03:00 +13°C° 0.1 mm 1 mps 700 mmHg 91%
    04:00 +13°C° 0.1 mm 1 mps 700 mmHg 92%
    05:00 +13°C° 0.1 mm 1 mps 700 mmHg 92%
    06:00 +13°C° 0 mm 1 mps 700 mmHg 93%
    07:00 +14°C° 0 mm 2 mps 700 mmHg 89%
    08:00 +15°C° 0 mm 2 mps 700 mmHg 85%
    09:00 +15°C° 0 mm 2 mps 700 mmHg 81%
    10:00 +16°C° 0 mm 1 mps 700 mmHg 79%
    11:00 +18°C° 0 mm 1 mps 700 mmHg 76%
    12:00 +18°C° 0 mm 1 mps 699 mmHg 74%
    13:00 +18°C° 0 mm 1 mps 699 mmHg 74%
    14:00 +18°C° 0 mm 1 mps 698 mmHg 74%
    15:00 +18°C° 0 mm 1 mps 698 mmHg 73%
    16:00 +16°C° 0 mm 1 mps 698 mmHg 77%
    17:00 +16°C° 0 mm 1 mps 698 mmHg 81%
    18:00 +14°C° 0 mm 0 mps 698 mmHg 85%
    19:00 +14°C° 0 mm 1 mps 698 mmHg 86%
    20:00 +14°C° 0 mm 1 mps 698 mmHg 86%
    21:00 +14°C° 0 mm 1 mps 699 mmHg 87%
    22:00 +13°C° 0 mm 1 mps 698 mmHg 88%
    23:00 +13°C° 0 mm 1 mps 698 mmHg 89%

    Tomorrow, 12 December, Tuesday

    Time Temperature Precipitation Wind Pressure Humidity
    00:00 +13°C° 0 mm 1 mps 698 mmHg 90%
    01:00 +13°C° 0 mm 1 mps 698 mmHg 91%
    02:00 +12°C° 0 mm 1 mps 697 mmHg 91%
    03:00 +12°C° 0 mm 1 mps 697 mmHg 92%
    04:00 +12°C° 0 mm 1 mps 697 mmHg 91%
    05:00 +12°C° 0 mm 1 mps 697 mmHg 91%
    06:00 +13°C° 0 mm 1 mps 698 mmHg 90%
    07:00 +14°C° 0 mm 1 mps 698 mmHg 83%
    08:00 +16°C° 0 mm 1 mps 699 mmHg 77%
    09:00 +19°C° 0 mm 1 mps 699 mmHg 70%
    10:00 +20°C° 0 mm 1 mps 699 mmHg 65%
    11:00 +21°C° 0 mm 1 mps 699 mmHg 60%
    12:00 +23°C° 0 mm 2 mps 698 mmHg 55%
    13:00 +22°C° 0 mm 1 mps 698 mmHg 59%
    14:00 +21°C° 0 mm 1 mps 697 mmHg 63%
    15:00 +21°C° 0 mm 1 mps 697 mmHg 67%
    16:00 +19°C° 0 mm 1 mps 697 mmHg 73%
    17:00 +18°C° 0 mm 1 mps 697 mmHg 79%
    18:00 +16°C° 0 mm 1 mps 697 mmHg 84%
    19:00 +16°C° 0 mm 1 mps 698 mmHg 86%
    20:00 +16°C° 0 mm 1 mps 698 mmHg 87%
    21:00 +15°C° 0 mm 1 mps 698 mmHg 88%
    22:00 +15°C° 0.1 mm 1 mps 698 mmHg 89%
    23:00 +15°C° 0.1 mm 1 mps 698 mmHg 89%

    Day after tomorrow, 13 December, Wednesday

    Time Temperature Precipitation Wind Pressure Humidity
    00:00 +14°C° 0.1 mm 0 mps 698 mmHg 90%
    01:00 +15°C° 0.1 mm 1 mps 698 mmHg 91%
    02:00 +15°C° 0.1 mm 1 mps 698 mmHg 91%
    03:00 +15°C° 0.1 mm 1 mps 697 mmHg 92%
    04:00 +15°C° 0.1 mm 1 mps 697 mmHg 93%
    05:00 +14°C° 0.1 mm 1 mps 697 mmHg 94%
    06:00 +14°C° 0.1 mm 1 mps 698 mmHg 95%
    07:00 +15°C° 0.1 mm 1 mps 698 mmHg 92%
    08:00 +16°C° 0.1 mm 1 mps 699 mmHg 89%
    09:00 +16°C° 0.1 mm 1 mps 699 mmHg 86%
    10:00 +18°C° 0.1 mm 1 mps 699 mmHg 82%
    11:00 +19°C° 0.1 mm 1 mps 699 mmHg 79%
    12:00 +20°C° 0.1 mm 1 mps 698 mmHg 75%
    13:00 +20°C° 0.1 mm 1 mps 698 mmHg 76%
    14:00 +20°C° 0.1 mm 1 mps 697 mmHg 77%
    15:00 +19°C° 0.1 mm 1 mps 696 mmHg 78%
    16:00 +18°C° 0 mm 1 mps 696 mmHg 82%
    17:00 +18°C° 0 mm 1 mps 696 mmHg 87%
    18:00 +16°C° 0 mm 1 mps 697 mmHg 91%
    19:00 +15°C° 0 mm 1 mps 697 mmHg 92%
    20:00 +15°C° 0 mm 1 mps 697 mmHg 93%
    21:00 +13°C° 0 mm 0 mps 698 mmHg 94%
    22:00 +14°C° 0 mm 1 mps 697 mmHg 94%
    23:00 +14°C° 0 mm 1 mps 697 mmHg 94%

    14 December, Thursday

    Time Temperature Precipitation Wind Pressure Humidity
    00:00 +14°C° 0 mm 1 mps 697 mmHg 94%
    01:00 +13°C° 0 mm 1 mps 696 mmHg 94%
    02:00 +13°C° 0 mm 1 mps 696 mmHg 94%
    03:00 +13°C° 0 mm 1 mps 695 mmHg 93%
    04:00 +13°C° 0 mm 1 mps 695 mmHg 93%
    05:00 +13°C° 0 mm 1 mps 695 mmHg 93%
    06:00 +13°C° 0 mm 1 mps 695 mmHg 93%
    07:00 +15°C° 0 mm 1 mps 696 mmHg 84%
    08:00 +18°C° 0 mm 1 mps 697 mmHg 76%
    09:00 +19°C° 0 mm 0 mps 697 mmHg 67%
    10:00 +22°C° 0 mm 1 mps 697 mmHg 62%
    11:00 +24°C° 0 mm 1 mps 696 mmHg 58%
    12:00 +25°C° 0 mm 1 mps 696 mmHg 53%
    13:00 +25°C° 0 mm 1 mps 695 mmHg 55%
    14:00 +25°C° 0 mm 2 mps 694 mmHg 57%
    15:00 +25°C° 0 mm 2 mps 694 mmHg 59%
    16:00 +23°C° 0 mm 2 mps 694 mmHg 69%
    17:00 +20°C° 0 mm 2 mps 694 mmHg 79%
    18:00 +18°C° 0 mm 2 mps 694 mmHg 89%
    19:00 +18°C° 0 mm 1 mps 694 mmHg 91%
    20:00 +18°C° 0 mm 1 mps 695 mmHg 93%
    21:00 +16°C° 0 mm 1 mps 695 mmHg 95%
    22:00 +16°C° 0 mm 1 mps 695 mmHg 95%
    23:00 +16°C° 0 mm 1 mps 695 mmHg 95%

    15 December, Friday

    Time Temperature Precipitation Wind Pressure Humidity
    00:00 +16°C° 0 mm 1 mps 695 mmHg 95%
    01:00 +16°C° 0 mm 1 mps 695 mmHg 95%
    02:00 +16°C° 0 mm 1 mps 695 mmHg 95%
    03:00 +16°C° 0 mm 1 mps 694 mmHg 95%
    04:00 +16°C° 0 mm 1 mps 695 mmHg 95%
    05:00 +16°C° 0 mm 1 mps 695 mmHg 94%
    06:00 +16°C° 0 mm 1 mps 695 mmHg 94%
    07:00 +19°C° 0 mm 1 mps 696 mmHg 87%
    08:00 +21°C° 0 mm 1 mps 697 mmHg 80%
    09:00 +23°C° 0 mm 1 mps 698 mmHg 74%
    10:00 +23°C° 0 mm 1 mps 698 mmHg 71%
    11:00 +24°C° 0 mm 1 mps 697 mmHg 68%
    12:00 +25°C° 0 mm 1 mps 697 mmHg 66%
    13:00 +24°C° 0.1 mm 1 mps 697 mmHg 70%
    14:00 +24°C° 0.1 mm 1 mps 696 mmHg 75%
    15:00 +23°C° 0.1 mm 1 mps 696 mmHg 79%
    16:00 +22°C° 0.4 mm 1 mps 696 mmHg 85%
    17:00 +21°C° 0.4 mm 1 mps 696 mmHg 90%
    18:00 +20°C° 0.4 mm 1 mps 696 mmHg 95%
    19:00 +20°C° 0.5 mm 1 mps 697 mmHg 96%
    20:00 +20°C° 0.5 mm 1 mps 697 mmHg 96%
    21:00 +19°C° 0.5 mm 1 mps 698 mmHg 97%
    22:00 +19°C° 0.4 mm 1 mps 698 mmHg 97%
    23:00 +19°C° 0.4 mm 1 mps 697 mmHg 98%

    16 December, Saturday

    Time Temperature Precipitation Wind Pressure Humidity
    00:00 +19°C° 0.4 mm 1 mps 697 mmHg 98%
    01:00 +19°C° 0.8 mm 1 mps 697 mmHg 98%
    02:00 +19°C° 0.8 mm 1 mps 697 mmHg 98%
    03:00 +19°C° 0.8 mm 1 mps 696 mmHg 98%
    04:00 +19°C° 1.6 mm 1 mps 696 mmHg 98%
    05:00 +19°C° 1.6 mm 1 mps 697 mmHg 98%
    06:00 +19°C° 1.6 mm 1 mps 697 mmHg 98%
    07:00 +19°C° 1.1 mm 1 mps 697 mmHg 98%
    08:00 +19°C° 1.1 mm 1 mps 698 mmHg 97%
    09:00 +19°C° 1.1 mm 1 mps 698 mmHg 97%
    10:00 +19°C° 0.5 mm 1 mps 698 mmHg 97%
    11:00 +19°C° 0.5 mm 1 mps 697 mmHg 96%
    12:00 +20°C° 0.5 mm 1 mps 697 mmHg 96%
    13:00 +20°C° 0.5 mm 1 mps 696 mmHg 95%
    14:00 +19°C° 0.5 mm 1 mps 695 mmHg 95%
    15:00 +19°C° 0.5 mm 1 mps 695 mmHg 95%
    16:00 +19°C° 0.3 mm 1 mps 695 mmHg 96%
    17:00 +19°C° 0.3 mm 1 mps 695 mmHg 97%
    18:00 +18°C° 0.3 mm 1 mps 695 mmHg 98%
    19:00 +18°C° 0.2 mm 1 mps 696 mmHg 98%
    20:00 +18°C° 0.2 mm 1 mps 696 mmHg 98%
    21:00 +18°C° 0.2 mm 1 mps 696 mmHg 98%
    22:00 +18°C° 0.1 mm 1 mps 696 mmHg 97%
    23:00 +18°C° 0.1 mm 1 mps 695 mmHg 97%
    Show more